Location: Skalnate Pleso
(49.1889°N, 20.2450°E)
Time: 12:18:12
(UTC+01:00)

Cosmos 1833 Rocket - Pass Details

Date: 19 November 2019
Orbit: 832 x 840 km, 71.0° (Epoch: 05 December)

Event Time Altitude Azimuth Distance (km) Brightness Sun altitude
Exits shadow 03:27:29 27° 19° (NNE) 1,568 4.3 -33.5°
Drops below altitude 10° 03:29:57 10° 25° (NNE) 2,457 5.4 -33.1°
Sets 03:32:25 0° 28° (NNE) 3,396 6.3 -32.7°
